SL-14 DEB, 45309

Orbit data source: Space-Track

SL-14 DEB, 45309 is space debris in LEO originally from a launch on Thu, 15 Aug 1991 UTC launched from the Plesetsk Missile And Space Complex (PKMTR). Debris objects in space refer to the collection of defunct objects orbiting the Earth. Examples of debris include non-operational satellites, rocket bodies, and fragments generated from explosions, collisions, or faulty payload assembly.

Loading next visibility...
Identifier
45309, 1991-056AX
Orbit
LEO
Country
Flag of CISCIS
Related business
Manufacturer
Unknown
Mission
Spacecraft
Bus & Motor
Unknown
Mass
Unknown
Launch date (UTC)
1991-08-15 (34 years ago)
Launch vehicle
Unknown
Launch site
Plesetsk Missile And Space Complex (PKMTR)
Object type
Payload
Rocket body
Debris
Shape & HBR
Unknown shape, 0.2 m
Radar Cross Section
Small (<0.1 m²)

Expand to show TLE details & history
Last TLE update: 8 hours ago

TLE from 8 hours ago
0 SL-14 DEB
1 45309U 91056AX  25287.85169530 -.00000056  00000-0 -15504-3 0  9994
2 45309  82.6091 337.7905 0145217 221.6792 137.3197 13.22149717271213
Epoch: 2025-10-14T20:26Z
TLE epoch observation values (Epoch: 2025-10-14T20:26:26.473Z)
Latitude
-0.00003°
Longitude
7.546°
Altitude
1,260.722 km
Speed
7.186 km/s
True Right ascension
22h 31m 09s
True Declination
0° 00' 00"
Sunlit
Object was in full shadow at epoch
Visualization orbit readout
Latitude
Unknown
Longitude
Unknown
Altitude
Unknown
Speed
Unknown
Apparent Right ascension
Unknown
Apparent Declination
Unknown
Sunlit
N/A
Visualization observer readout
Local Sidereal Time
23:23:05
Azimuth
Unknown
Elevation
Unknown
Doppler factor
Unknown
Orbital elements
Apogee altitude
1,283.421 km
Perigee altitude
1,064.088 km
Semi-major axis
7,551.891 km
Eccentricity
0.01452
Inclination
82.6091°
RAAN
337.7905°
Arg. of periapsis
221.6792°
True anomaly
138.43285°
Mean anomaly
137.3197°
Eccentric anomaly
137.87776°
Mean motion
3.30719 °/min
Orbital period
108.85 mins
BSTAR
-0.00015504
Loading maneuver chart data...
Computing Atmospheric mass density...
Loading historical data...
Loading historical data...
Loading historical data...
Loading historical data...
Loading historical data...
Loading historical data...
Loading historical data...

Documentation

Showing up to 5 results
|